Location: Essen
(51.4609°N, 7.0127°E)
Time: 16:01:04
(UTC+02:00)

ISS - Visible Passes

Search period start: 24 May 2018 00:00
Search period end: 03 June 2018 00:00
Orbit: 402 x 407 km, 51.6° (Epoch: 25 May)

Date Brightness Start Highest point End Pass type
(mag) Time Alt. Az. Time Alt. Az. Time Alt. Az.
24 May -4.0 01:21:16 10° W 01:24:32 88° SSW 01:27:49 10° E visible
24 May -3.1 02:57:49 10° W 03:00:18 32° SW 03:00:18 32° SW visible
24 May -3.9 22:52:37 10° WSW 22:55:52 65° SSE 22:59:06 10° E visible
25 May -3.9 00:29:03 10° W 00:32:21 85° N 00:35:37 10° E visible
25 May -3.5 02:05:34 10° W 02:08:18 45° SW 02:08:18 45° SW visible
25 May -3.8 23:36:50 10° W 23:40:07 86° N 23:43:25 10° E visible
26 May -4.0 01:13:21 10° W 01:16:37 68° SSW 01:17:14 51° SE visible
26 May -3.9 22:44:38 10° W 22:47:54 86° S 22:51:11 10° E visible
27 May -4.0 00:21:08 10° W 00:24:25 84° S 00:26:25 22° ESE visible
27 May -2.0 01:57:44 10° W 01:59:02 19° WSW 01:59:02 19° WSW visible
27 May -3.9 23:28:54 10° W 23:32:11 87° N 23:35:28 10° E visible
28 May -3.4 01:05:26 10° W 01:08:18 43° SW 01:08:18 43° SW visible
28 May -3.8 22:36:39 10° W 22:39:56 85° N 22:43:13 10° E visible
29 May -3.9 00:13:09 10° W 00:16:24 61° SSW 00:17:38 33° SE visible
29 May -1.2 01:50:09 10° W 01:50:16 11° W 01:50:16 11° W visible
29 May -3.9 23:20:54 10° W 23:24:11 79° SSW 23:27:01 13° ESE visible
30 May -2.4 00:57:34 10° W 00:59:38 24° SW 00:59:38 24° SW visible
30 May -3.8 22:28:37 10° W 22:31:55 89° NNE 22:35:12 10° E visible
31 May -3.3 00:05:10 10° W 00:08:15 39° SSW 00:09:02 33° S visible
31 May -3.7 23:12:51 10° W 23:16:04 55° SSW 23:18:27 16° SE visible
01 Jun -1.6 00:50:02 10° WSW 00:51:05 14° WSW 00:51:05 14° WSW visible
01 Jun -3.8 22:20:33 10° W 22:23:49 73° SSW 22:27:04 10° ESE visible
01 Jun -2.4 23:57:18 10° W 23:59:58 23° SW 00:00:31 22° SSW visible
02 Jun -2.9 23:04:48 10° W 23:07:49 34° SSW 23:09:59 16° SSE visible
